This is the latest recevied weather packets stored in our database for station/object W9LRT-WX. If no packets are shown the sender has not sent any weather packets the latest 10 day(s).
| Time | Temp. | Humidity | Pressure | Rain* | Wind** | Luminosity | Snow |
|---|---|---|---|---|---|---|---|
| 1777415488 | 16.67° C | 71% | 1011.2 hPa | 0 mm | - | 302 W/m² | - |
| 1777414589 | 16.11° C | 71% | 1011.8 hPa | 0 mm | - | 174 W/m² | - |
| 1777413690 | 16.67° C | 71% | 1012.2 hPa | 0 mm | - | 213 W/m² | - |
| 1777412789 | 16.67° C | 71% | 1011.9 hPa | 0 mm | - | 179 W/m² | - |
| 1777411888 | 16.67° C | 72% | 1011.8 hPa | 0 mm | - | 666 W/m² | - |
| 1777410989 | 16.11° C | 71% | 1012.1 hPa | 0 mm | - | 255 W/m² | - |
| 1777410089 | 15.56° C | 73% | 1012.3 hPa | 0 mm | - | 360 W/m² | - |
| 1777409190 | 16.11° C | 73% | 1012 hPa | 0 mm | - | 369 W/m² | - |
| 1777408286 | 16.11° C | 71% | 1011.6 hPa | 0 mm | - | 332 W/m² | - |
| 1777407386 | 16.11° C | 73% | 1012.1 hPa | 0 mm | - | 373 W/m² | - |
| 1777406485 | 16.67° C | 69% | 1012.3 hPa | 0 mm | - | 410 W/m² | - |
| 1777405582 | 16.11° C | 73% | 1012.4 hPa | 0 mm | - | 313 W/m² | - |
| 1777404683 | 15.56° C | 73% | 1012.6 hPa | 0 mm | - | 369 W/m² | - |
| 1777403783 | 14.44° C | 76% | 1012.9 hPa | 0 mm | - | 373 W/m² | - |
| 1777402878 | 14.44° C | 76% | 1012.7 hPa | 0 mm | - | 357 W/m² | - |
| 1777401976 | 14.44° C | 76% | 1012.8 hPa | 0 mm | - | 392 W/m² | - |
| 1777401077 | 13.89° C | 77% | 1012.8 hPa | 0 mm | - | 381 W/m² | - |
| 1777400176 | 13.89° C | 77% | 1012.7 hPa | 0 mm | - | 464 W/m² | - |
| 1777399276 | 13.33° C | 81% | 1012.7 hPa | 0 mm | - | 392 W/m² | - |
| 1777398376 | 12.78° C | 80% | 1012.6 hPa | 0 mm | - | 311 W/m² | - |
| 1777397472 | 12.78° C | 82% | 1012.2 hPa | 0 mm | - | 455 W/m² | - |
| 1777396570 | 12.78° C | 80% | 1012.3 hPa | 0 mm | - | 399 W/m² | - |
| 1777395670 | 12.78° C | 81% | 1012.4 hPa | 0 mm | - | 359 W/m² | - |
| 1777394770 | 12.22° C | 81% | 1012.2 hPa | 0 mm | - | 438 W/m² | - |
| 1777393871 | 12.22° C | 81% | 1012.2 hPa | 0 mm | - | 301 W/m² | - |
* Rain latest hour (hover to see other rain measurements)
** Current wind speed in m/s (hover to see current wind gust speed)